This is the latest recevied weather packets stored in our database for station/object KY4LEX. If no packets are shown the sender has not sent any weather packets the latest 10 day(s).
| Time | Temp. | Humidity | Pressure | Rain* | Wind** | Luminosity | Snow |
|---|---|---|---|---|---|---|---|
| 1778057274 | 15° C | 99% | 1012.2 hPa | 0 mm | - | 0 W/m² | - |
| 1778056971 | 15° C | 99% | 1012.2 hPa | 3.05 mm | - | 0 W/m² | - |
| 1778056668 | 15° C | 98% | 1011.7 hPa | 3.05 mm | - | 0 W/m² | - |
| 1778056365 | 15° C | 98% | 1011.6 hPa | 3.05 mm | - | 0 W/m² | - |
| 1778056063 | 15° C | 98% | 1011.7 hPa | 1.27 mm | - | 0 W/m² | - |
| 1778055758 | 15° C | 98% | 1011.7 hPa | 3.05 mm | - | 0 W/m² | - |
| 1778055456 | 15° C | 98% | 1011.6 hPa | 6.6 mm | - | 0 W/m² | - |
| 1778055153 | 15° C | 98% | 1011.4 hPa | 1.78 mm | - | 0 W/m² | - |
| 1778054851 | 15° C | 98% | 1011.4 hPa | 0 mm | - | 0 W/m² | - |
| 1778054547 | 15° C | 98% | 1011.5 hPa | 3.05 mm | - | 0 W/m² | - |
| 1778054245 | 15° C | 98% | 1011.5 hPa | 4.32 mm | - | 0 W/m² | - |
| 1778053942 | 15° C | 98% | 1011.7 hPa | 7.11 mm | - | 0 W/m² | - |
| 1778053640 | 15° C | 98% | 1011.4 hPa | 10.67 mm | - | 0 W/m² | - |
| 1778053336 | 15° C | 98% | 1011.4 hPa | 6.6 mm | - | 0 W/m² | - |
| 1778053034 | 15° C | 98% | 1011.4 hPa | 1.78 mm | - | 0 W/m² | - |
| 1778052731 | 15° C | 98% | 1011.6 hPa | 1.27 mm | - | 0 W/m² | - |
| 1778052428 | 15° C | 98% | 1011.4 hPa | 1.27 mm | - | 0 W/m² | - |
| 1778052126 | 15° C | 97% | 1011.4 hPa | 1.78 mm | - | 0 W/m² | - |
| 1778051823 | 15° C | 97% | 1011.4 hPa | 3.05 mm | - | 0 W/m² | - |
| 1778051521 | 14.44° C | 97% | 1011.1 hPa | 4.32 mm | - | 0 W/m² | - |
| 1778051218 | 14.44° C | 97% | 1010.9 hPa | 13.72 mm | - | 0 W/m² | - |
| 1778050914 | 14.44° C | 97% | 1011.2 hPa | 7.87 mm | - | 0 W/m² | - |
| 1778050613 | 14.44° C | 97% | 1010.6 hPa | 1.78 mm | - | 0 W/m² | - |
| 1778050309 | 14.44° C | 97% | 1010.4 hPa | 3.05 mm | - | 0 W/m² | - |
| 1778050006 | 14.44° C | 97% | 1010.5 hPa | 1.27 mm | - | 0 W/m² | - |
* Rain latest hour (hover to see other rain measurements)
** Current wind speed in m/s (hover to see current wind gust speed)